7 * 24
多渠道服务支持
ICESat-2(冰、云和陆地高程卫星2号)由美国航空航天局(NASA)主导研发,于美国东部时间2018年9月15日发射,是一颗地球观测卫星。卫星搭载先进光子计数激光高度计ATLAS,能够高精度测量冰盖、冰川、海冰等地表高程变化,帮助科学家解析气候变化对冰冻圈的影响,同时可开展全球森林植被高度监测,为地球系统科学研究提供关键观测数据,目前卫星仍在轨运行。
美国
(US)
| 数据来源 | 国际轨道数据 |
| 星历时间: | 2026-09-11T06:22:52+0800 8小时前 查看轨道信息 |
| 半长轴: | 6859.291km |
| 偏心率: | 0.0005448 |
| 轨道倾角: | 92.004° |
| 近地点辐角 | 116.330° |
| 升交点赤经 | 314.142° |
| 平近点角 | 243.851° |
| 近地点: | 477.417km |
| 远地点: | 484.891km |
| 周期: | 94.228分钟 |
| 每日圈数: | 15.282133 |